Regional Weather Roundup
Issued by NWS

Home | Current Version | Previous Version | Text Only | Print | Product List | Glossary Off
Versions: 1 2 3 4 5 6 7 8 9 10 11 12 13 14 15 16 17 18 19 20 21 22 23 24 25 26 27 28 29 30 31 32 33 34 35 36 37 38 39 40 41 42 43 44 45 46 47 48 49 50

000
ASUS44 KMEG 240300
RWRTN
TENNESSEE HOURLY STATE WEATHER ROUNDUP
NATIONAL WEATHER SERVICE MEMPHIS TN
1000 PM CDT WED APR 23 2014

TNZ002-004-019-021-049-052-054-088>092-240400-
WEST TENNESSEE

CITY           SKY/WX    TMP DP  RH WIND       PRES   REMARKS
MEMPHIS INTL   PTCLDY    67  39  35 E10       29.94S
NWS MEMPHIS      N/A     64 N/A N/A MISG        N/A
JACKSON        CLEAR     57  39  51 CALM      29.97S
DYERSBURG      CLEAR     61  36  39 E3        29.98S
UNION CITY     CLEAR     57  37  47 E6        29.98S
LEXINGTON      CLEAR     57  37  47 E6        29.98S
$$

TNZ008-025-027-028-033-062-065-066-240400-
NORTH MIDDLE TENNESSEE

CITY           SKY/WX    TMP DP  RH WIND       PRES   REMARKS
NASHVILLE      CLEAR     57  35  43 CALM      30.02S
CLARKSVILLE    CLEAR     56  35  45 NE3       30.02R
COOKEVILLE     CLEAR     48  36  61 CALM      30.02S
CROSSVILLE     CLEAR     53  28  38 N3        30.04R
$$

TNZ061-075-076-078-094-096-097-240400-
SOUTH MIDDLE TENNESSEE

CITY           SKY/WX    TMP DP  RH WIND       PRES   REMARKS
TULLAHOMA      CLEAR     54  36  50 CALM      30.02R
WINCHESTER     CLEAR     48  41  76 CALM      30.01S
MCMINNVILLE    CLEAR     54  37  54 N5        30.02R
COLUMBIA       CLEAR     52  45  76 CALM      29.99S
$$

TNZ017-018-042-046-047-240400-
NORTHEAST TENNESSEE

CITY           SKY/WX    TMP DP  RH WIND       PRES   REMARKS
TRI CITIES     CLEAR     50  27  40 CALM      30.04R
ELIZABETHTON   CLEAR     45  34  65 CALM      30.04R
$$

TNZ012-013-036-069-073-074-240400-
CENTRAL EAST TENNESSEE

CITY           SKY/WX    TMP DP  RH WIND       PRES   REMARKS
KNOXVILLE      CLEAR     58  30  34 N7        30.01R
OAK RIDGE      CLEAR     56  31  38 E5        30.03R
$$

TNZ083-085-099-240400-
SOUTHEAST TENNESSEE

CITY           SKY/WX    TMP DP  RH WIND       PRES   REMARKS
CHATTANOOGA    CLEAR     58  41  53 N3        29.99R
$$

SKY/WX REPORTED AS FAIR MEANS FEW OR NO CLOUDS BELOW
12 THOUSAND FEET.




USA.gov is the U.S. government's official web portal to all federal, state and local government web resources and services.